Lafayette, LA

10:56 PM CDT on June 25, 2017 (GMT -0500)
Lafayette Regional

Weather History for KLFT - November, 2012

Change the Weather History Date:

Sunday, November 25, 2012

  Actual Average Record
Temperature  
Mean Temperature 51 °F 59 °F  
Max Temperature 68 °F 69 °F 85 °F (1921)
Min Temperature 34 °F 48 °F 24 °F (1938)
Degree Days  
Heating Degree Days 14 7  
Month to date heating degree days 148 122  
Since 1 July heating degree days 195 158  
Growing Degree Days 2 (Base 50)    
Moisture  
Dew Point 40 °F    
Average Humidity 67    
Maximum Humidity 92    
Minimum Humidity 42    
Precipitation  
Precipitation 0.00 in 0.15 in 2.82 in (1944)
Month to date precipitation 1.05 3.59  
Year to date precipitation 59.04 54.16  
Snow  
Snow 0.00 in 0.00 in 0.00 in ()
Month to date snowfall 0.0 0.0  
Since 1 July snowfall 0.0 0.0  
Since 1 September snowfall 0.0 0.0  
Snow Depth 0.00 in    
Sea Level Pressure  
Sea Level Pressure 30.15 in    
Wind  
Wind Speed 3 mph (South)    
Max Wind Speed 10 mph    
Max Gust Speed 13 mph    
Visibility 7 miles    
Events Fog    
T = Trace of Precipitation, MM = Missing Value Source: NWS Daily Summary

Daily Weather History Graph

Daily Weather History Graph

Search for Another Location

Airport or City:

Trip Planner

Search our weather history database for the weather conditions in past years. The results will help you decide how hot, cold, wet, or windy it might be!

Date:

Astronomy

Nov. 25, 2012 Rise Set
Actual Time 6:42 AM CST 5:07 PM CST
Civil Twilight 6:16 AM CST 5:33 PM CST
Nautical Twilight 5:46 AM CST 6:03 PM CST
Astronomical Twilight 5:18 AM CST 6:32 PM CST
Moon 3:18 PM CST (11/25) 4:04 AM CST (11/25)
Length of Visible Light 11h 17m
Length of Day
10h 25m
Waxing Gibbous, 93% of the Moon is Illuminated
Nov 25
Waxing Gibbous
Nov 28
Full
Dec 6
Last Quarter
Dec 13
New
Dec 19
First Quarter

Hourly Weather History & Observations

Time (CST) Temp. Dew Point Humidity Pressure Visibility Wind Dir Wind Speed Gust Speed Precip Events Conditions
12:53 AM 39.0 °F 36.0 °F 89% 30.19 in 5.0 mi Calm Calm - N/A   Clear
1:53 AM 37.9 °F 33.1 °F 83% 30.18 in 10.0 mi Calm Calm - N/A   Clear
2:15 AM 37.4 °F 35.6 °F 93% 30.17 in 1.5 mi Calm Calm - N/A   Clear
2:29 AM 37.4 °F 35.6 °F 93% 30.17 in 3.0 mi Calm Calm - N/A   Clear
2:53 AM 37.0 °F 34.0 °F 89% 30.17 in 9.0 mi Calm Calm - N/A   Clear
3:53 AM 36.0 °F 34.0 °F 93% 30.16 in 5.0 mi Calm Calm - N/A   Clear
4:45 AM 35.6 °F 33.8 °F 93% 30.17 in 1.2 mi Calm Calm - N/A   Partly Cloudy
4:47 AM 37.4 °F 35.6 °F 93% 30.17 in 0.8 mi Calm Calm - N/A   Mist
4:53 AM 36.0 °F 34.0 °F 93% 30.17 in 0.8 mi Calm Calm - N/A   Mist
4:55 AM 35.6 °F 33.8 °F 93% 30.17 in 1.5 mi Calm Calm - N/A   Partly Cloudy
4:57 AM 35.6 °F 33.8 °F 93% 30.17 in 5.0 mi Calm Calm - N/A   Partly Cloudy
5:37 AM 35.6 °F 33.8 °F 93% 30.17 in 1.5 mi Calm Calm - N/A   Clear
5:45 AM 35.6 °F 35.6 °F 100% 30.17 in 0.5 mi Calm Calm - N/A Fog Fog
5:53 AM 36.0 °F 34.0 °F 93% 30.17 in 0.5 mi Calm Calm - N/A Fog Fog
6:00 AM 35.6 °F 33.8 °F 93% 30.18 in 1.5 mi Calm Calm - N/A   Partly Cloudy
6:07 AM 35.6 °F 33.8 °F 93% 30.18 in 9.0 mi Calm Calm - N/A   Partly Cloudy
6:38 AM 35.6 °F 33.8 °F 93% 30.18 in 1.2 mi Calm Calm - N/A   Clear
6:44 AM 35.6 °F 33.8 °F 93% 30.19 in 3.0 mi Calm Calm - N/A   Clear
6:53 AM 35.1 °F 33.1 °F 92% 30.19 in 10.0 mi Calm Calm - N/A   Clear
7:53 AM 41.0 °F 36.0 °F 82% 30.19 in 10.0 mi Calm Calm - N/A   Clear
8:53 AM 50.0 °F 39.0 °F 66% 30.20 in 10.0 mi Calm Calm - N/A   Clear
9:53 AM 55.9 °F 37.9 °F 51% 30.20 in 10.0 mi SE 4.6 mph - N/A   Clear
10:53 AM 61.0 °F 41.0 °F 48% 30.19 in 10.0 mi South 6.9 mph - N/A   Clear
11:53 AM 63.0 °F 43.0 °F 48% 30.16 in 10.0 mi Variable 3.5 mph - N/A   Clear
12:53 PM 66.9 °F 43.0 °F 42% 30.12 in 10.0 mi SW 6.9 mph - N/A   Clear
1:53 PM 68.0 °F 44.1 °F 42% 30.09 in 10.0 mi Variable 3.5 mph - N/A   Clear
2:53 PM 68.0 °F 44.1 °F 42% 30.08 in 10.0 mi South 6.9 mph - N/A   Clear
3:53 PM 66.9 °F 46.0 °F 47% 30.08 in 10.0 mi South 5.8 mph - N/A   Clear
4:53 PM 64.0 °F 51.1 °F 63% 30.08 in 10.0 mi South 6.9 mph - N/A   Clear
5:53 PM 61.0 °F 51.1 °F 70% 30.08 in 10.0 mi South 4.6 mph - N/A   Clear
6:53 PM 57.9 °F 50.0 °F 75% 30.08 in 10.0 mi Calm Calm - N/A   Clear
7:53 PM 57.9 °F 50.0 °F 75% 30.09 in 10.0 mi SSE 5.8 mph - N/A   Clear
8:53 PM 57.9 °F 51.1 °F 78% 30.08 in 10.0 mi SE 4.6 mph - N/A   Clear
9:53 PM 57.9 °F 52.0 °F 81% 30.09 in 10.0 mi SSE 4.6 mph - N/A   Clear
10:53 PM 57.9 °F 52.0 °F 81% 30.08 in 10.0 mi SSE 3.5 mph - N/A   Clear
11:53 PM 57.0 °F 53.1 °F 87% 30.07 in 10.0 mi Calm Calm - N/A   Clear